Location: Zagreb
(45.8000°N, 16.0000°E)
Time: 14:34:51
(UTC+02:00)

Tiros 1 despin weight - Pass Details

Date: 10 August 2022
Orbit: 590 x 639 km, 48.2° (Epoch: 23 September)

Event Time Altitude Azimuth Distance (km) Brightness Sun altitude
Rises 16:13:16 0° 273° (W) 2,834 ? 39.9°
Reaches altitude 10° 16:15:35 10° 277° (W) 1,927 ? 39.5°
Maximum altitude 16:19:58 63° 358° (N) 664 ? 38.8°
Drops below altitude 10° 16:24:19 10° 80° (E) 1,918 ? 38.0°
Sets 16:26:37 0° 84° (E) 2,819 ? 37.7°
